Location: Jetmore Motorplex
(37.9889°N, 99.8876°W)
Time: 20:28:39
(UTC+00:00)

MOS 1 - Pass Details

Date: 17 February 2020
Orbit: 879 x 891 km, 99.2° (Epoch: 07 April)

Event Time Altitude Azimuth Distance (km) Brightness Sun altitude
Exits shadow 01:57:43 14° 148° (SSE) 2,288 6.1 -20.1°
Maximum altitude 02:02:35 58° 72° (ENE) 1,023 4.3 -21.0°
Drops below altitude 10° 02:08:08 10° 354° (N) 2,550 6.8 -22.1°
Sets 02:10:34 0° 351° (N) 3,491 7.5 -22.6°
